GEFSMW_prec_meanprecacc_198.txt.gz
Total_Precipitation_Accumulation
1.65 2.11 2.74 3.40 4.21 5.31 5.96 6.05 5.70 4.98 4.43 3.93 3.63 3.30 3.01 2.75 2.31 1.92 1.68 1.51 1.41 1.32 1.41 1.30 1.29 1.24 1.26 1.26 1.38 1.59 1.65 1.45 1.59 1.83 1.69 1.40 1.16 1.12 1.09 1.01 1.07 1.09 1.14
1.51 2.11 2.89 3.70 4.32 4.87 5.23 5.27 4.84 4.07 3.57 3.22 3.12 2.83 2.58 2.23 2.01 1.76 1.66 1.42 1.32 1.25 1.19 1.29 1.12 1.08 1.18 1.15 1.24 1.43 1.45 1.28 1.37 1.62 1.69 1.47 1.38 1.13 0.77 0.88 0.97 0.97 1.17
1.69 2.47 3.30 4.04 4.33 4.36 4.15 3.84 3.60 3.19 3.05 2.94 2.74 2.49 2.39 2.10 1.90 1.64 1.48 1.26 1.11 1.04 0.99 0.98 0.95 0.98 0.91 1.01 1.15 1.26 1.41 1.37 1.18 1.20 1.44 1.37 1.30 1.16 0.88 0.75 0.82 0.99 1.15
1.84 2.56 3.12 3.35 3.48 3.41 3.12 2.90 2.78 2.67 2.59 2.49 2.33 2.01 1.78 1.71 1.57 1.45 1.40 1.29 1.14 1.07 1.01 0.88 0.91 0.91 0.82 1.01 0.88 1.00 1.21 1.30 1.12 1.11 1.10 1.13 1.18 1.19 1.10 0.94 0.82 0.99 1.05
1.40 1.64 1.86 2.02 2.14 2.17 2.32 2.35 2.40 2.50 2.38 2.32 2.24 2.08 1.80 1.74 1.72 1.66 1.67 1.55 1.38 1.18 0.98 0.95 1.00 1.00 0.87 0.89 0.92 1.07 1.11 1.15 1.09 1.08 1.09 1.23 1.23 1.06 1.07 1.09 1.05 1.03 0.87
0.87 0.97 1.08 1.20 1.43 1.48 1.67 1.82 1.88 2.01 2.13 2.11 1.98 1.92 1.83 1.83 1.83 1.72 1.55 1.36 1.26 1.17 1.05 1.05 1.16 1.12 1.05 0.98 0.96 0.99 1.04 1.17 1.25 1.22 1.11 1.14 1.18 1.09 1.08 0.95 0.93 1.01 0.90
0.69 0.84 0.97 1.08 1.27 1.20 1.25 1.43 1.48 1.51 1.63 1.64 1.60 1.66 1.76 1.78 1.62 1.50 1.40 1.25 1.05 1.01 1.07 1.06 1.15 1.14 1.15 1.10 1.15 1.15 1.07 1.15 1.23 1.17 1.12 1.07 1.04 1.11 1.17 1.12 1.00 1.04 1.03
0.60 0.71 0.70 0.78 0.90 0.86 0.93 1.05 1.19 1.25 1.29 1.36 1.40 1.40 1.50 1.47 1.40 1.45 1.36 1.21 1.01 0.93 0.94 0.98 1.00 1.03 1.07 1.06 1.29 1.20 1.21 1.23 1.16 1.08 1.27 1.21 1.05 1.16 1.23 1.33 1.43 1.37 1.36
0.48 0.53 0.46 0.47 0.59 0.69 0.75 0.80 0.98 1.10 1.11 1.22 1.28 1.23 1.29 1.34 1.39 1.41 1.32 1.15 1.14 1.04 1.05 1.05 1.14 1.19 1.20 1.22 1.38 1.34 1.28 1.34 1.19 1.14 1.24 1.22 1.18 1.21 1.20 1.41 1.60 1.72 1.66
0.37 0.39 0.37 0.35 0.43 0.55 0.71 0.80 0.91 1.01 1.04 1.13 1.12 0.98 1.13 1.24 1.36 1.34 1.27 1.21 1.24 1.16 1.21 1.22 1.27 1.32 1.28 1.27 1.40 1.40 1.44 1.46 1.36 1.34 1.33 1.31 1.29 1.38 1.32 1.40 1.53 1.68 1.86
0.37 0.36 0.32 0.30 0.32 0.41 0.60 0.73 0.85 0.94 0.97 1.03 1.11 1.16 1.15 1.07 1.18 1.24 1.24 1.28 1.31 1.23 1.25 1.31 1.37 1.34 1.38 1.47 1.56 1.44 1.49 1.56 1.68 1.62 1.57 1.61 1.68 1.65 1.56 1.59 1.60 1.64 1.85
0.32 0.33 0.33 0.35 0.35 0.36 0.47 0.59 0.71 0.83 0.90 0.98 1.10 1.16 1.24 1.16 1.13 1.17 1.24 1.30 1.40 1.44 1.38 1.39 1.41 1.31 1.33 1.50 1.58 1.56 1.56 1.57 1.58 1.73 1.92 1.90 1.86 1.74 1.61 1.68 1.63 1.62 1.86
0.41 0.38 0.39 0.42 0.46 0.44 0.45 0.54 0.67 0.82 0.93 1.03 1.08 1.17 1.24 1.18 1.15 1.29 1.41 1.43 1.55 1.65 1.67 1.63 1.52 1.43 1.39 1.45 1.53 1.59 1.58 1.61 1.67 1.78 1.86 1.93 2.03 1.88 1.76 1.71 1.68 1.73 1.85
0.45 0.37 0.35 0.37 0.42 0.54 0.59 0.67 0.89 0.88 0.86 1.00 1.12 1.20 1.26 1.26 1.27 1.38 1.47 1.49 1.56 1.70 1.83 1.79 1.71 1.67 1.56 1.43 1.41 1.43 1.49 1.65 1.79 1.84 1.76 1.84 2.07 2.12 2.07 1.90 1.82 1.89 2.00
0.42 0.35 0.33 0.34 0.43 0.56 0.59 0.67 0.81 0.99 1.02 1.17 1.33 1.39 1.49 1.54 1.56 1.64 1.65 1.62 1.63 1.68 1.84 1.91 1.91 1.84 1.66 1.44 1.45 1.54 1.51 1.65 1.71 1.67 1.58 1.59 1.78 1.99 2.07 1.90 1.85 1.92 1.93
0.42 0.44 0.47 0.46 0.49 0.55 0.63 0.70 0.75 0.92 1.11 1.35 1.63 1.67 1.76 1.81 1.89 2.04 2.12 2.04 2.00 2.07 2.11 2.07 2.01 1.90 1.55 1.58 1.56 1.55 1.60 1.69 1.70 1.67 1.62 1.51 1.46 1.50 1.64 1.76 1.86 1.95 1.89
0.58 0.61 0.68 0.65 0.64 0.64 0.69 0.77 0.84 0.98 1.20 1.45 1.70 1.90 2.02 2.09 2.18 2.28 2.29 2.23 2.30 2.43 2.43 2.31 2.14 2.00 1.89 1.76 1.55 1.49 1.44 1.46 1.49 1.54 1.53 1.32 1.21 1.30 1.26 1.43 1.55 1.66 1.72
0.67 0.69 0.79 0.85 0.81 0.80 0.89 1.01 1.14 1.30 1.50 1.71 1.89 2.04 2.09 2.12 2.18 2.25 2.19 2.20 2.31 2.36 2.37 2.32 2.19 2.08 1.99 1.84 1.52 1.42 1.26 1.29 1.35 1.38 1.37 1.32 1.27 1.26 1.30 1.31 1.30 1.29 1.36
0.72 0.77 0.85 0.94 0.98 0.99 1.09 1.19 1.26 1.38 1.58 1.76 1.85 1.87 1.98 2.08 2.14 2.18 2.22 2.22 2.19 2.08 2.00 1.97 1.98 1.95 2.00 1.91 1.57 1.39 1.25 1.35 1.38 1.39 1.40 1.41 1.34 1.43 1.30 1.23 1.26 1.27 1.30
0.70 0.82 0.83 0.88 0.95 1.04 1.06 1.14 1.24 1.42 1.65 1.82 1.85 1.84 1.94 2.02 2.09 2.14 2.18 2.11 2.02 1.96 1.91 1.82 1.84 1.84 1.85 1.80 1.45 1.33 1.26 1.37 1.40 1.43 1.43 1.42 1.31 1.28 1.14 1.06 1.17 1.19 1.22
0.70 0.75 0.86 0.93 0.96 1.04 1.08 1.14 1.26 1.40 1.52 1.60 1.67 1.78 1.93 2.03 2.06 2.09 2.06 1.99 1.90 1.91 1.92 1.84 1.75 1.72 1.73 1.76 1.49 1.32 1.20 1.34 1.50 1.50 1.44 1.43 1.36 1.10 1.02 0.96 0.98 1.02 1.06
0.83 0.86 0.93 1.09 1.15 1.18 1.18 1.24 1.25 1.31 1.41 1.41 1.47 1.51 1.60 1.74 1.79 1.85 1.79 1.79 1.74 1.69 1.66 1.62 1.54 1.49 1.51 1.46 1.36 1.17 1.05 1.12 1.27 1.39 1.41 1.43 1.29 1.01 0.88 0.77 0.75 0.73 0.70
1.05 1.02 1.01 1.08 1.13 1.21 1.28 1.33 1.29 1.25 1.26 1.28 1.35 1.41 1.42 1.55 1.65 1.67 1.61 1.59 1.55 1.49 1.45 1.41 1.36 1.34 1.31 1.27 1.11 0.95 0.86 0.91 1.03 1.20 1.36 1.27 1.08 0.90 0.76 0.70 0.65 0.59 0.55
0.87 0.95 0.97 1.01 1.14 1.11 1.14 1.21 1.24 1.23 1.28 1.33 1.33 1.36 1.40 1.48 1.67 1.72 1.58 1.47 1.42 1.37 1.35 1.30 1.30 1.34 1.36 1.30 1.12 0.92 0.78 0.82 0.92 1.01 1.10 1.12 1.09 1.03 0.95 0.83 0.72 0.63 0.66
0.68 0.72 0.77 0.80 0.86 0.87 0.89 0.93 0.97 1.04 1.10 1.09 1.05 1.03 1.10 1.24 1.43 1.53 1.48 1.33 1.29 1.34 1.35 1.31 1.27 1.21 1.17 1.21 1.12 0.96 0.91 0.95 1.02 1.01 1.06 1.09 1.16 1.20 1.21 1.17 1.08 0.99 0.95
0.57 0.61 0.63 0.64 0.67 0.72 0.80 0.89 1.03 1.14 1.12 1.03 0.97 0.96 0.97 1.07 1.26 1.46 1.53 1.39 1.18 1.20 1.17 1.11 1.07 1.03 0.98 0.96 0.94 0.90 0.88 0.93 0.97 0.92 1.04 1.20 1.30 1.38 1.39 1.37 1.25 1.11 1.00

GEFSMW_prec_meanprecacc_204.txt.gz
Total_Precipitation_Accumulation
1.65 2.12 2.77 3.43 4.23 5.33 5.98 6.08 5.75 5.03 4.47 4.01 3.73 3.42 3.13 2.84 2.38 1.97 1.72 1.58 1.50 1.41 1.52 1.36 1.38 1.32 1.35 1.35 1.47 1.67 1.74 1.54 1.70 1.91 1.74 1.43 1.18 1.15 1.12 1.05 1.11 1.12 1.18
1.52 2.12 2.91 3.72 4.38 4.92 5.26 5.30 4.88 4.11 3.61 3.28 3.18 2.89 2.65 2.30 2.08 1.81 1.72 1.49 1.41 1.36 1.27 1.36 1.19 1.15 1.26 1.23 1.33 1.53 1.53 1.35 1.47 1.72 1.78 1.54 1.43 1.17 0.80 0.92 1.02 1.02 1.22
1.70 2.47 3.30 4.06 4.39 4.40 4.16 3.85 3.63 3.22 3.07 2.98 2.77 2.52 2.43 2.14 1.94 1.70 1.56 1.33 1.19 1.11 1.08 1.08 1.03 1.06 0.98 1.09 1.25 1.37 1.50 1.46 1.28 1.29 1.55 1.49 1.41 1.24 0.92 0.79 0.86 1.02 1.20
1.85 2.57 3.12 3.36 3.51 3.43 3.13 2.91 2.80 2.70 2.62 2.52 2.37 2.05 1.83 1.77 1.63 1.52 1.46 1.35 1.21 1.14 1.09 0.99 1.03 1.02 0.92 1.13 0.99 1.09 1.33 1.42 1.24 1.23 1.21 1.24 1.30 1.30 1.18 1.01 0.88 1.04 1.10
1.41 1.65 1.87 2.02 2.15 2.18 2.32 2.35 2.41 2.51 2.41 2.35 2.29 2.15 1.87 1.80 1.77 1.73 1.74 1.62 1.44 1.26 1.04 1.02 1.10 1.11 0.97 1.00 1.03 1.18 1.22 1.26 1.21 1.20 1.21 1.35 1.35 1.18 1.19 1.19 1.12 1.10 0.92
0.87 0.98 1.08 1.20 1.43 1.48 1.67 1.83 1.89 2.03 2.16 2.16 2.02 1.97 1.89 1.90 1.89 1.80 1.63 1.43 1.32 1.23 1.12 1.12 1.25 1.21 1.14 1.08 1.07 1.10 1.15 1.26 1.34 1.33 1.21 1.25 1.30 1.23 1.26 1.11 1.04 1.10 0.97
0.69 0.84 0.97 1.08 1.27 1.20 1.25 1.43 1.49 1.52 1.65 1.66 1.62 1.68 1.80 1.84 1.69 1.56 1.47 1.33 1.11 1.08 1.14 1.14 1.24 1.21 1.22 1.17 1.24 1.25 1.17 1.24 1.32 1.27 1.22 1.18 1.15 1.23 1.31 1.27 1.13 1.13 1.11
0.60 0.71 0.71 0.78 0.90 0.86 0.94 1.06 1.19 1.26 1.31 1.37 1.43 1.42 1.54 1.54 1.47 1.52 1.43 1.29 1.07 0.99 0.99 1.04 1.07 1.10 1.13 1.12 1.38 1.29 1.30 1.35 1.29 1.18 1.39 1.33 1.16 1.27 1.34 1.46 1.57 1.49 1.44
0.48 0.53 0.46 0.47 0.60 0.70 0.76 0.81 0.99 1.11 1.12 1.23 1.30 1.25 1.32 1.40 1.46 1.48 1.38 1.21 1.19 1.08 1.08 1.09 1.19 1.25 1.27 1.29 1.45 1.42 1.38 1.47 1.31 1.26 1.36 1.31 1.25 1.28 1.28 1.53 1.73 1.86 1.78
0.37 0.39 0.37 0.35 0.43 0.56 0.72 0.81 0.92 1.03 1.05 1.14 1.13 0.99 1.15 1.27 1.41 1.39 1.31 1.27 1.29 1.21 1.25 1.26 1.32 1.37 1.34 1.34 1.49 1.50 1.54 1.58 1.48 1.44 1.42 1.40 1.38 1.47 1.41 1.51 1.66 1.81 1.99
0.37 0.36 0.32 0.30 0.32 0.42 0.61 0.74 0.86 0.95 0.98 1.05 1.13 1.17 1.17 1.10 1.21 1.26 1.26 1.31 1.35 1.27 1.29 1.36 1.42 1.39 1.44 1.53 1.62 1.51 1.55 1.64 1.76 1.70 1.65 1.71 1.78 1.74 1.66 1.69 1.70 1.75 1.97
0.32 0.33 0.33 0.35 0.35 0.37 0.48 0.60 0.72 0.84 0.91 1.00 1.13 1.18 1.26 1.18 1.15 1.19 1.26 1.32 1.42 1.46 1.42 1.45 1.47 1.36 1.38 1.56 1.63 1.61 1.63 1.64 1.65 1.80 2.01 1.98 1.95 1.83 1.70 1.77 1.72 1.72 1.96
0.41 0.38 0.39 0.43 0.46 0.45 0.46 0.55 0.69 0.83 0.95 1.05 1.11 1.20 1.26 1.20 1.18 1.32 1.43 1.46 1.58 1.70 1.72 1.68 1.58 1.49 1.46 1.51 1.60 1.67 1.68 1.71 1.77 1.88 1.95 2.00 2.11 1.97 1.87 1.80 1.76 1.79 1.91
0.45 0.37 0.35 0.37 0.42 0.54 0.59 0.68 0.91 0.90 0.88 1.03 1.16 1.24 1.30 1.30 1.31 1.40 1.49 1.51 1.60 1.74 1.87 1.83 1.75 1.71 1.61 1.48 1.47 1.50 1.56 1.73 1.88 1.92 1.84 1.92 2.15 2.19 2.13 1.96 1.88 1.95 2.06
0.42 0.35 0.33 0.35 0.43 0.57 0.60 0.68 0.82 1.00 1.03 1.19 1.35 1.40 1.51 1.57 1.60 1.68 1.69 1.65 1.66 1.70 1.88 1.95 1.94 1.88 1.72 1.49 1.50 1.59 1.59 1.76 1.81 1.76 1.66 1.65 1.84 2.06 2.14 1.98 1.95 2.04 2.04
0.43 0.45 0.47 0.47 0.50 0.56 0.63 0.71 0.76 0.94 1.13 1.36 1.64 1.68 1.77 1.82 1.91 2.06 2.14 2.07 2.03 2.11 2.16 2.12 2.06 1.96 1.61 1.64 1.62 1.61 1.65 1.75 1.76 1.73 1.68 1.57 1.52 1.56 1.72 1.87 2.00 2.12 2.08
0.59 0.61 0.69 0.67 0.66 0.66 0.70 0.78 0.85 0.99 1.22 1.47 1.71 1.91 2.03 2.11 2.19 2.29 2.30 2.25 2.35 2.50 2.51 2.39 2.22 2.07 1.96 1.83 1.61 1.56 1.50 1.51 1.53 1.58 1.58 1.37 1.26 1.35 1.30 1.47 1.62 1.77 1.85
0.67 0.70 0.81 0.88 0.84 0.83 0.91 1.03 1.17 1.32 1.53 1.73 1.90 2.05 2.09 2.13 2.19 2.26 2.20 2.24 2.37 2.44 2.45 2.38 2.24 2.13 2.04 1.88 1.56 1.47 1.29 1.32 1.37 1.41 1.40 1.36 1.31 1.30 1.34 1.35 1.34 1.33 1.41
0.73 0.78 0.88 0.98 1.05 1.06 1.16 1.24 1.30 1.40 1.60 1.77 1.86 1.88 1.99 2.10 2.16 2.20 2.24 2.26 2.24 2.13 2.04 2.01 2.01 1.98 2.02 1.93 1.59 1.41 1.28 1.38 1.41 1.43 1.44 1.44 1.37 1.47 1.35 1.31 1.35 1.37 1.40
0.72 0.84 0.86 0.93 1.03 1.11 1.14 1.21 1.31 1.46 1.67 1.84 1.87 1.86 1.96 2.04 2.10 2.16 2.21 2.15 2.07 2.01 1.95 1.85 1.87 1.87 1.87 1.84 1.48 1.36 1.29 1.41 1.43 1.47 1.47 1.45 1.34 1.33 1.20 1.14 1.27 1.30 1.33
0.72 0.78 0.89 0.96 1.00 1.08 1.12 1.18 1.30 1.43 1.55 1.62 1.69 1.79 1.94 2.04 2.07 2.11 2.10 2.03 1.94 1.95 1.95 1.87 1.78 1.74 1.76 1.79 1.52 1.36 1.23 1.39 1.54 1.53 1.48 1.46 1.39 1.13 1.04 0.99 1.01 1.05 1.09
0.85 0.88 0.96 1.11 1.18 1.21 1.21 1.28 1.28 1.34 1.44 1.44 1.49 1.52 1.61 1.75 1.80 1.88 1.84 1.85 1.80 1.74 1.69 1.64 1.57 1.52 1.53 1.47 1.38 1.19 1.08 1.16 1.31 1.42 1.44 1.46 1.32 1.04 0.91 0.79 0.77 0.75 0.71
1.07 1.04 1.03 1.10 1.16 1.25 1.33 1.38 1.33 1.28 1.29 1.31 1.38 1.43 1.43 1.56 1.68 1.74 1.70 1.67 1.62 1.54 1.49 1.44 1.39 1.36 1.34 1.28 1.11 0.96 0.87 0.93 1.05 1.23 1.39 1.31 1.12 0.93 0.77 0.71 0.67 0.61 0.57
0.89 0.96 0.99 1.03 1.17 1.15 1.18 1.24 1.27 1.26 1.31 1.36 1.35 1.37 1.42 1.51 1.71 1.78 1.66 1.55 1.48 1.41 1.39 1.34 1.34 1.37 1.38 1.32 1.13 0.93 0.79 0.82 0.92 1.02 1.12 1.13 1.10 1.04 0.95 0.84 0.74 0.65 0.69
0.69 0.73 0.79 0.82 0.89 0.90 0.92 0.95 0.99 1.07 1.12 1.12 1.08 1.05 1.12 1.26 1.45 1.55 1.52 1.38 1.33 1.37 1.38 1.34 1.30 1.24 1.19 1.22 1.13 0.97 0.92 0.96 1.03 1.02 1.08 1.10 1.17 1.21 1.22 1.19 1.10 1.02 0.98
0.58 0.62 0.65 0.66 0.69 0.75 0.83 0.91 1.05 1.16 1.14 1.05 0.99 0.98 0.99 1.09 1.27 1.47 1.55 1.42 1.21 1.23 1.20 1.14 1.08 1.05 0.99 0.96 0.95 0.90 0.88 0.94 0.98 0.93 1.05 1.21 1.31 1.39 1.41 1.40 1.29 1.15 1.04

GEFSMW_prec_meanprecacc_210.txt.gz
Total_Precipitation_Accumulation
1.65 2.13 2.78 3.44 4.23 5.34 6.00 6.11 5.81 5.09 4.54 4.10 3.82 3.51 3.22 2.93 2.45 2.03 1.78 1.66 1.55 1.47 1.61 1.45 1.46 1.38 1.43 1.44 1.53 1.74 1.82 1.60 1.75 1.97 1.80 1.51 1.26 1.25 1.24 1.16 1.22 1.25 1.30
1.52 2.13 2.91 3.73 4.38 4.93 5.28 5.33 4.93 4.16 3.66 3.35 3.25 2.97 2.72 2.37 2.15 1.88 1.81 1.57 1.47 1.44 1.34 1.44 1.26 1.22 1.37 1.34 1.43 1.64 1.65 1.45 1.56 1.83 1.90 1.67 1.57 1.29 0.89 1.03 1.15 1.16 1.38
1.70 2.48 3.31 4.06 4.40 4.41 4.18 3.88 3.67 3.26 3.11 3.02 2.81 2.58 2.50 2.19 2.00 1.78 1.65 1.40 1.24 1.17 1.16 1.17 1.09 1.14 1.04 1.20 1.38 1.48 1.64 1.60 1.41 1.41 1.67 1.63 1.61 1.42 1.03 0.88 0.96 1.16 1.35
1.85 2.58 3.13 3.37 3.51 3.43 3.13 2.92 2.83 2.73 2.66 2.55 2.40 2.09 1.89 1.85 1.72 1.60 1.57 1.44 1.28 1.21 1.16 1.07 1.12 1.12 0.99 1.22 1.05 1.18 1.46 1.56 1.38 1.39 1.34 1.37 1.48 1.52 1.40 1.17 1.00 1.13 1.19
1.42 1.66 1.87 2.03 2.15 2.18 2.33 2.36 2.43 2.54 2.44 2.38 2.33 2.18 1.91 1.87 1.84 1.82 1.87 1.72 1.53 1.33 1.11 1.11 1.21 1.24 1.08 1.12 1.14 1.30 1.33 1.36 1.35 1.35 1.35 1.50 1.53 1.37 1.40 1.41 1.29 1.21 1.00
0.88 0.98 1.08 1.21 1.44 1.49 1.67 1.83 1.90 2.05 2.18 2.17 2.04 1.99 1.92 1.95 1.95 1.89 1.73 1.53 1.41 1.32 1.19 1.23 1.38 1.32 1.26 1.23 1.19 1.22 1.26 1.40 1.48 1.46 1.34 1.40 1.45 1.40 1.47 1.33 1.25 1.28 1.10
0.69 0.84 0.97 1.08 1.27 1.20 1.25 1.44 1.50 1.53 1.67 1.68 1.64 1.70 1.83 1.88 1.74 1.62 1.54 1.41 1.20 1.17 1.23 1.25 1.37 1.33 1.36 1.28 1.37 1.38 1.32 1.39 1.45 1.41 1.37 1.30 1.28 1.37 1.48 1.46 1.30 1.30 1.25
0.60 0.71 0.71 0.78 0.90 0.86 0.94 1.06 1.20 1.28 1.32 1.40 1.45 1.45 1.57 1.59 1.52 1.57 1.48 1.36 1.14 1.05 1.07 1.14 1.18 1.21 1.25 1.23 1.53 1.42 1.42 1.47 1.40 1.30 1.55 1.48 1.29 1.41 1.50 1.62 1.75 1.65 1.58
0.48 0.54 0.46 0.47 0.60 0.70 0.76 0.82 1.00 1.13 1.13 1.25 1.33 1.28 1.35 1.44 1.50 1.52 1.44 1.27 1.26 1.13 1.14 1.15 1.29 1.38 1.40 1.42 1.59 1.55 1.50 1.61 1.45 1.41 1.53 1.48 1.43 1.44 1.42 1.69 1.91 2.05 1.96
0.38 0.40 0.38 0.36 0.43 0.56 0.72 0.81 0.93 1.04 1.06 1.16 1.16 1.03 1.18 1.30 1.45 1.43 1.37 1.33 1.35 1.27 1.31 1.33 1.40 1.47 1.44 1.45 1.59 1.58 1.63 1.69 1.59 1.58 1.59 1.56 1.53 1.62 1.54 1.66 1.86 2.02 2.19
0.37 0.37 0.33 0.31 0.32 0.42 0.61 0.74 0.87 0.96 0.99 1.07 1.15 1.20 1.20 1.14 1.25 1.29 1.29 1.34 1.38 1.30 1.33 1.40 1.48 1.46 1.51 1.62 1.71 1.58 1.62 1.71 1.84 1.79 1.78 1.83 1.90 1.86 1.77 1.83 1.86 1.94 2.16
0.32 0.33 0.34 0.36 0.36 0.38 0.49 0.62 0.75 0.86 0.93 1.02 1.14 1.21 1.31 1.24 1.22 1.24 1.30 1.35 1.46 1.50 1.46 1.49 1.52 1.42 1.45 1.62 1.70 1.68 1.70 1.71 1.73 1.88 2.12 2.09 2.07 1.97 1.83 1.90 1.86 1.90 2.15
0.41 0.39 0.40 0.44 0.47 0.46 0.47 0.57 0.71 0.85 0.97 1.07 1.14 1.23 1.30 1.26 1.25 1.38 1.47 1.49 1.63 1.74 1.76 1.73 1.63 1.54 1.51 1.57 1.66 1.74 1.75 1.78 1.85 1.97 2.05 2.09 2.21 2.09 1.99 1.92 1.88 1.93 2.06
0.46 0.38 0.36 0.40 0.47 0.59 0.63 0.69 0.92 0.92 0.90 1.06 1.18 1.26 1.33 1.35 1.37 1.46 1.53 1.55 1.64 1.79 1.92 1.87 1.79 1.76 1.66 1.54 1.53 1.56 1.62 1.80 1.96 2.01 1.92 1.99 2.21 2.26 2.21 2.05 1.98 2.05 2.18
0.44 0.37 0.34 0.36 0.46 0.61 0.64 0.71 0.84 1.03 1.06 1.21 1.37 1.42 1.54 1.61 1.66 1.75 1.75 1.68 1.69 1.74 1.92 1.99 1.98 1.91 1.75 1.53 1.54 1.65 1.64 1.82 1.88 1.83 1.73 1.71 1.89 2.10 2.20 2.03 2.02 2.13 2.14
0.44 0.46 0.48 0.48 0.53 0.59 0.66 0.73 0.78 0.96 1.16 1.40 1.67 1.70 1.79 1.84 1.94 2.10 2.17 2.10 2.07 2.15 2.19 2.15 2.10 2.01 1.65 1.68 1.67 1.65 1.69 1.81 1.83 1.80 1.74 1.62 1.57 1.60 1.76 1.91 2.04 2.17 2.14
0.60 0.62 0.70 0.68 0.68 0.69 0.73 0.80 0.87 1.03 1.29 1.56 1.80 1.95 2.05 2.12 2.21 2.30 2.32 2.27 2.38 2.54 2.55 2.43 2.27 2.13 2.01 1.89 1.66 1.61 1.55 1.59 1.62 1.67 1.66 1.42 1.29 1.39 1.34 1.52 1.66 1.80 1.88
0.69 0.71 0.82 0.89 0.86 0.86 0.94 1.07 1.21 1.40 1.65 1.85 1.99 2.09 2.11 2.14 2.20 2.27 2.22 2.26 2.40 2.47 2.49 2.42 2.28 2.17 2.08 1.92 1.60 1.52 1.34 1.39 1.44 1.47 1.45 1.41 1.35 1.34 1.39 1.40 1.39 1.38 1.46
0.74 0.80 0.89 1.00 1.08 1.10 1.20 1.28 1.37 1.52 1.73 1.86 1.90 1.90 2.00 2.11 2.17 2.21 2.26 2.28 2.28 2.16 2.08 2.05 2.06 2.02 2.05 1.97 1.62 1.43 1.30 1.42 1.45 1.46 1.48 1.48 1.42 1.52 1.39 1.35 1.41 1.43 1.46
0.72 0.85 0.87 0.95 1.06 1.15 1.17 1.25 1.37 1.54 1.74 1.88 1.89 1.87 1.97 2.05 2.11 2.17 2.23 2.18 2.11 2.06 2.00 1.92 1.93 1.92 1.92 1.88 1.51 1.38 1.33 1.45 1.47 1.51 1.51 1.50 1.38 1.37 1.22 1.18 1.31 1.34 1.38
0.73 0.79 0.91 0.99 1.03 1.11 1.15 1.21 1.32 1.45 1.57 1.64 1.71 1.81 1.95 2.05 2.08 2.12 2.12 2.06 1.97 2.00 2.03 1.95 1.85 1.80 1.79 1.83 1.55 1.38 1.26 1.42 1.58 1.56 1.51 1.48 1.41 1.14 1.06 1.02 1.05 1.10 1.14
0.86 0.90 0.98 1.12 1.19 1.23 1.23 1.31 1.30 1.36 1.46 1.46 1.51 1.54 1.62 1.76 1.81 1.90 1.87 1.88 1.87 1.84 1.83 1.77 1.68 1.60 1.59 1.51 1.40 1.21 1.09 1.17 1.33 1.45 1.46 1.48 1.34 1.07 0.94 0.82 0.80 0.79 0.75
1.08 1.06 1.04 1.11 1.17 1.27 1.36 1.41 1.35 1.30 1.31 1.34 1.40 1.45 1.44 1.58 1.71 1.78 1.74 1.73 1.71 1.65 1.59 1.52 1.47 1.45 1.40 1.32 1.13 0.97 0.89 0.94 1.06 1.24 1.40 1.32 1.14 0.96 0.82 0.76 0.71 0.65 0.60
0.90 0.97 0.99 1.04 1.19 1.18 1.21 1.27 1.29 1.27 1.32 1.38 1.37 1.40 1.44 1.53 1.74 1.82 1.71 1.60 1.54 1.47 1.44 1.39 1.39 1.42 1.43 1.35 1.15 0.95 0.81 0.84 0.93 1.03 1.13 1.14 1.12 1.07 0.99 0.88 0.77 0.67 0.70
0.71 0.74 0.81 0.84 0.92 0.93 0.95 0.99 1.02 1.08 1.13 1.15 1.12 1.08 1.15 1.29 1.48 1.59 1.56 1.42 1.36 1.40 1.41 1.37 1.33 1.28 1.23 1.25 1.17 0.99 0.94 0.97 1.04 1.03 1.08 1.11 1.20 1.24 1.25 1.20 1.11 1.02 0.98
0.60 0.65 0.68 0.69 0.72 0.78 0.86 0.95 1.08 1.18 1.16 1.09 1.03 1.02 1.02 1.12 1.31 1.52 1.59 1.46 1.25 1.27 1.23 1.17 1.11 1.07 1.02 1.00 0.97 0.92 0.89 0.94 0.98 0.93 1.06 1.22 1.32 1.41 1.42 1.41 1.30 1.16 1.05

GEFSMW_prec_meanprecacc_216.txt.gz
Total_Precipitation_Accumulation
1.66 2.14 2.79 3.46 4.24 5.35 6.01 6.12 5.83 5.10 4.56 4.12 3.85 3.54 3.25 2.96 2.48 2.08 1.82 1.69 1.59 1.51 1.66 1.50 1.51 1.43 1.47 1.47 1.56 1.77 1.84 1.62 1.79 2.03 1.85 1.56 1.33 1.35 1.32 1.26 1.32 1.39 1.46
1.53 2.14 2.92 3.73 4.39 4.94 5.29 5.35 4.94 4.17 3.67 3.37 3.27 2.99 2.74 2.39 2.17 1.92 1.86 1.62 1.53 1.49 1.38 1.48 1.32 1.28 1.43 1.40 1.48 1.68 1.69 1.48 1.61 1.88 1.95 1.70 1.62 1.35 0.96 1.14 1.25 1.29 1.55
1.71 2.49 3.31 4.07 4.41 4.42 4.18 3.89 3.69 3.27 3.12 3.03 2.83 2.59 2.52 2.22 2.03 1.82 1.71 1.46 1.29 1.23 1.23 1.23 1.14 1.19 1.10 1.25 1.42 1.54 1.69 1.65 1.48 1.46 1.73 1.68 1.64 1.47 1.09 0.96 1.05 1.27 1.51
1.86 2.58 3.13 3.37 3.52 3.44 3.14 2.93 2.84 2.75 2.68 2.57 2.43 2.11 1.91 1.88 1.74 1.64 1.63 1.51 1.33 1.25 1.21 1.13 1.19 1.19 1.05 1.28 1.10 1.24 1.51 1.62 1.44 1.46 1.41 1.43 1.54 1.58 1.45 1.24 1.08 1.22 1.30
1.43 1.66 1.87 2.03 2.15 2.18 2.33 2.37 2.44 2.56 2.46 2.40 2.36 2.23 1.95 1.89 1.86 1.85 1.92 1.78 1.58 1.37 1.15 1.15 1.28 1.32 1.17 1.19 1.20 1.37 1.38 1.41 1.41 1.41 1.40 1.56 1.59 1.44 1.47 1.47 1.36 1.29 1.08
0.88 0.98 1.08 1.21 1.44 1.49 1.67 1.84 1.91 2.07 2.20 2.21 2.09 2.03 1.95 1.97 1.97 1.91 1.76 1.56 1.44 1.35 1.23 1.28 1.43 1.39 1.34 1.29 1.25 1.27 1.31 1.45 1.55 1.53 1.43 1.50 1.55 1.50 1.58 1.42 1.34 1.38 1.20
0.70 0.85 0.98 1.08 1.27 1.20 1.25 1.44 1.52 1.55 1.69 1.72 1.67 1.72 1.84 1.90 1.77 1.66 1.58 1.44 1.22 1.19 1.26 1.28 1.42 1.40 1.42 1.34 1.44 1.45 1.39 1.46 1.54 1.50 1.45 1.40 1.36 1.46 1.59 1.60 1.44 1.42 1.36
0.61 0.71 0.71 0.78 0.91 0.87 0.94 1.07 1.21 1.29 1.34 1.42 1.47 1.47 1.59 1.61 1.56 1.61 1.52 1.38 1.17 1.07 1.09 1.16 1.21 1.25 1.30 1.28 1.58 1.48 1.48 1.54 1.48 1.38 1.65 1.58 1.37 1.50 1.62 1.78 1.90 1.78 1.67
0.49 0.55 0.47 0.48 0.61 0.70 0.76 0.82 1.01 1.14 1.15 1.27 1.35 1.31 1.39 1.48 1.54 1.56 1.47 1.29 1.29 1.16 1.17 1.18 1.32 1.42 1.44 1.47 1.65 1.60 1.56 1.67 1.51 1.48 1.61 1.57 1.51 1.55 1.55 1.85 2.07 2.20 2.08
0.40 0.42 0.40 0.37 0.43 0.56 0.72 0.82 0.95 1.07 1.09 1.20 1.20 1.08 1.23 1.35 1.49 1.46 1.39 1.35 1.37 1.29 1.34 1.35 1.43 1.50 1.48 1.48 1.63 1.63 1.69 1.75 1.65 1.63 1.65 1.62 1.58 1.69 1.63 1.75 1.96 2.13 2.31
0.42 0.40 0.34 0.32 0.33 0.42 0.63 0.76 0.91 1.02 1.08 1.15 1.23 1.27 1.28 1.22 1.31 1.32 1.32 1.36 1.39 1.32 1.35 1.42 1.50 1.47 1.53 1.65 1.74 1.62 1.66 1.76 1.91 1.85 1.84 1.89 1.97 1.91 1.82 1.88 1.94 2.05 2.29
0.35 0.36 0.37 0.37 0.37 0.39 0.52 0.66 0.82 0.97 1.03 1.10 1.22 1.30 1.44 1.39 1.31 1.29 1.33 1.38 1.47 1.51 1.47 1.51 1.54 1.44 1.47 1.66 1.74 1.72 1.74 1.77 1.79 1.95 2.17 2.14 2.12 2.02 1.88 1.96 1.92 1.96 2.23
0.46 0.43 0.45 0.48 0.51 0.49 0.52 0.64 0.78 0.93 1.06 1.15 1.23 1.37 1.45 1.35 1.31 1.42 1.49 1.51 1.64 1.76 1.79 1.77 1.67 1.58 1.55 1.62 1.71 1.79 1.82 1.86 1.92 2.03 2.12 2.15 2.28 2.14 2.04 1.98 1.94 1.99 2.15
0.53 0.45 0.41 0.44 0.51 0.66 0.72 0.77 1.01 1.02 1.00 1.18 1.34 1.41 1.44 1.42 1.41 1.49 1.56 1.58 1.66 1.82 1.96 1.92 1.84 1.80 1.70 1.58 1.57 1.61 1.69 1.87 2.02 2.07 1.98 2.05 2.26 2.31 2.27 2.10 2.04 2.12 2.25
0.51 0.42 0.39 0.40 0.51 0.65 0.74 0.85 0.92 1.10 1.14 1.31 1.46 1.50 1.60 1.64 1.68 1.76 1.76 1.70 1.71 1.76 1.94 2.01 2.02 1.96 1.81 1.58 1.60 1.71 1.71 1.87 1.93 1.89 1.79 1.78 1.96 2.16 2.25 2.06 2.04 2.16 2.18
0.49 0.51 0.53 0.53 0.58 0.62 0.69 0.76 0.81 0.99 1.19 1.44 1.74 1.78 1.85 1.87 1.95 2.10 2.18 2.11 2.09 2.18 2.23 2.19 2.14 2.05 1.70 1.74 1.73 1.71 1.73 1.83 1.87 1.84 1.78 1.66 1.62 1.64 1.79 1.94 2.06 2.19 2.16
0.63 0.68 0.76 0.75 0.72 0.71 0.74 0.82 0.90 1.06 1.33 1.60 1.84 2.01 2.09 2.14 2.21 2.31 2.33 2.28 2.40 2.57 2.59 2.47 2.30 2.16 2.05 1.93 1.71 1.66 1.58 1.60 1.64 1.69 1.69 1.45 1.32 1.42 1.37 1.54 1.69 1.82 1.90
0.71 0.76 0.89 0.93 0.89 0.89 0.97 1.09 1.25 1.45 1.70 1.88 2.01 2.12 2.13 2.16 2.21 2.28 2.23 2.27 2.42 2.49 2.51 2.45 2.32 2.22 2.12 1.97 1.64 1.54 1.35 1.40 1.46 1.49 1.48 1.42 1.36 1.35 1.40 1.42 1.41 1.40 1.48
0.76 0.82 0.92 1.03 1.11 1.14 1.24 1.32 1.41 1.57 1.78 1.90 1.93 1.93 2.02 2.13 2.19 2.23 2.27 2.30 2.29 2.18 2.10 2.08 2.09 2.06 2.10 2.02 1.65 1.45 1.31 1.43 1.46 1.47 1.49 1.51 1.43 1.54 1.41 1.37 1.42 1.44 1.47
0.76 0.88 0.91 0.99 1.10 1.20 1.23 1.31 1.43 1.59 1.77 1.91 1.92 1.90 1.99 2.07 2.14 2.19 2.25 2.20 2.13 2.07 2.03 1.96 1.98 1.97 1.95 1.91 1.53 1.39 1.33 1.46 1.48 1.53 1.53 1.52 1.40 1.40 1.25 1.19 1.32 1.35 1.39
0.84 0.88 0.96 1.03 1.07 1.16 1.22 1.28 1.38 1.49 1.59 1.66 1.74 1.84 1.98 2.08 2.11 2.15 2.14 2.07 1.99 2.02 2.05 1.99 1.92 1.88 1.84 1.86 1.57 1.38 1.26 1.43 1.60 1.59 1.54 1.51 1.43 1.16 1.08 1.04 1.06 1.11 1.15
0.91 0.95 1.03 1.16 1.23 1.27 1.28 1.35 1.33 1.38 1.49 1.49 1.54 1.56 1.65 1.79 1.84 1.92 1.89 1.91 1.88 1.86 1.85 1.80 1.72 1.69 1.69 1.59 1.45 1.24 1.11 1.18 1.35 1.48 1.49 1.50 1.35 1.08 0.95 0.84 0.82 0.80 0.76
1.10 1.07 1.06 1.13 1.21 1.30 1.38 1.44 1.39 1.35 1.35 1.38 1.43 1.47 1.47 1.61 1.73 1.80 1.76 1.74 1.73 1.67 1.61 1.54 1.50 1.51 1.50 1.43 1.21 1.02 0.92 0.96 1.08 1.26 1.41 1.33 1.15 0.97 0.82 0.77 0.72 0.66 0.62
0.93 0.99 1.01 1.07 1.23 1.21 1.26 1.35 1.39 1.36 1.39 1.43 1.40 1.43 1.47 1.57 1.77 1.85 1.73 1.63 1.55 1.48 1.45 1.41 1.41 1.46 1.48 1.41 1.19 0.98 0.84 0.87 0.95 1.04 1.14 1.15 1.13 1.07 0.99 0.88 0.78 0.69 0.72
0.78 0.79 0.85 0.89 0.98 0.98 1.00 1.06 1.11 1.20 1.21 1.20 1.15 1.12 1.19 1.33 1.52 1.62 1.60 1.45 1.38 1.43 1.44 1.40 1.36 1.31 1.27 1.30 1.22 1.04 0.98 1.00 1.05 1.04 1.09 1.11 1.20 1.25 1.25 1.21 1.12 1.04 1.00
0.67 0.70 0.73 0.74 0.77 0.82 0.89 0.98 1.11 1.22 1.21 1.13 1.08 1.07 1.07 1.15 1.34 1.54 1.62 1.49 1.29 1.31 1.28 1.20 1.14 1.11 1.06 1.05 1.03 0.97 0.92 0.96 0.99 0.94 1.07 1.22 1.33 1.41 1.43 1.41 1.31 1.17 1.06

GEFSMW_prec_meanprecacc_222.txt.gz
Total_Precipitation_Accumulation
1.68 2.16 2.81 3.47 4.25 5.37 6.02 6.14 5.84 5.12 4.57 4.14 3.88 3.57 3.27 2.98 2.51 2.11 1.85 1.72 1.63 1.56 1.72 1.56 1.57 1.48 1.51 1.51 1.59 1.80 1.88 1.67 1.84 2.07 1.88 1.58 1.35 1.37 1.35 1.29 1.37 1.44 1.52
1.54 2.15 2.93 3.74 4.39 4.95 5.30 5.36 4.96 4.19 3.69 3.40 3.30 3.01 2.77 2.42 2.20 1.95 1.90 1.65 1.56 1.54 1.44 1.55 1.38 1.33 1.48 1.45 1.52 1.72 1.72 1.52 1.65 1.92 1.98 1.73 1.64 1.36 0.97 1.15 1.28 1.33 1.60
1.72 2.50 3.32 4.07 4.41 4.42 4.19 3.89 3.70 3.29 3.15 3.07 2.87 2.62 2.56 2.27 2.07 1.86 1.75 1.49 1.31 1.27 1.29 1.29 1.19 1.26 1.15 1.30 1.47 1.59 1.73 1.69 1.52 1.50 1.78 1.71 1.66 1.48 1.10 0.97 1.07 1.31 1.56
1.87 2.59 3.13 3.37 3.52 3.44 3.14 2.93 2.85 2.76 2.70 2.59 2.45 2.14 2.00 1.94 1.77 1.67 1.66 1.54 1.36 1.28 1.26 1.18 1.25 1.24 1.10 1.32 1.14 1.29 1.55 1.66 1.50 1.51 1.45 1.48 1.59 1.61 1.46 1.25 1.09 1.25 1.34
1.44 1.67 1.88 2.03 2.16 2.19 2.33 2.37 2.45 2.58 2.48 2.42 2.39 2.28 2.01 1.93 1.87 1.86 1.93 1.80 1.62 1.41 1.20 1.21 1.35 1.38 1.24 1.25 1.25 1.41 1.43 1.47 1.48 1.49 1.47 1.62 1.64 1.48 1.50 1.49 1.40 1.34 1.12
0.89 1.00 1.09 1.21 1.44 1.49 1.68 1.85 1.92 2.09 2.23 2.22 2.12 2.05 1.97 1.99 1.99 1.93 1.77 1.58 1.46 1.38 1.26 1.32 1.50 1.46 1.41 1.37 1.31 1.34 1.39 1.54 1.64 1.61 1.51 1.57 1.62 1.57 1.65 1.49 1.41 1.45 1.27
0.71 0.85 0.98 1.09 1.27 1.20 1.26 1.45 1.53 1.56 1.71 1.74 1.70 1.75 1.86 1.92 1.79 1.69 1.61 1.45 1.23 1.20 1.28 1.32 1.46 1.43 1.45 1.38 1.50 1.52 1.47 1.55 1.62 1.59 1.53 1.47 1.41 1.51 1.64 1.65 1.51 1.51 1.44
0.62 0.72 0.72 0.80 0.92 0.88 0.95 1.08 1.22 1.31 1.36 1.45 1.50 1.50 1.62 1.63 1.58 1.64 1.55 1.40 1.19 1.09 1.10 1.18 1.24 1.28 1.32 1.32 1.62 1.52 1.54 1.61 1.55 1.45 1.72 1.65 1.43 1.57 1.69 1.86 2.00 1.88 1.76
0.50 0.56 0.50 0.50 0.62 0.72 0.78 0.85 1.04 1.18 1.19 1.31 1.38 1.34 1.41 1.50 1.56 1.58 1.49 1.31 1.31 1.17 1.18 1.20 1.35 1.44 1.46 1.51 1.70 1.63 1.60 1.72 1.57 1.55 1.67 1.64 1.59 1.63 1.63 1.93 2.18 2.29 2.14
0.41 0.44 0.43 0.39 0.45 0.58 0.75 0.85 0.98 1.10 1.13 1.23 1.23 1.09 1.24 1.36 1.50 1.48 1.40 1.36 1.38 1.30 1.36 1.37 1.46 1.52 1.50 1.51 1.67 1.66 1.72 1.78 1.69 1.67 1.69 1.67 1.64 1.74 1.69 1.81 2.02 2.20 2.37
0.45 0.43 0.37 0.37 0.36 0.45 0.65 0.78 0.92 1.04 1.10 1.17 1.25 1.28 1.29 1.24 1.36 1.39 1.36 1.38 1.41 1.33 1.36 1.43 1.52 1.50 1.56 1.68 1.76 1.64 1.69 1.79 1.94 1.89 1.87 1.93 2.00 1.95 1.85 1.92 1.98 2.11 2.36
0.37 0.39 0.43 0.47 0.43 0.44 0.55 0.68 0.84 0.99 1.05 1.12 1.24 1.33 1.46 1.42 1.37 1.36 1.39 1.41 1.49 1.52 1.48 1.52 1.55 1.46 1.50 1.69 1.77 1.75 1.77 1.81 1.85 2.02 2.23 2.20 2.18 2.09 1.95 2.04 1.99 2.03 2.30
0.48 0.47 0.51 0.56 0.57 0.54 0.56 0.68 0.82 0.98 1.10 1.18 1.26 1.40 1.48 1.39 1.34 1.45 1.52 1.53 1.66 1.77 1.81 1.79 1.69 1.60 1.58 1.65 1.75 1.84 1.86 1.90 1.97 2.08 2.18 2.21 2.34 2.21 2.11 2.05 2.01 2.05 2.22
0.55 0.49 0.45 0.48 0.58 0.72 0.76 0.83 1.07 1.08 1.09 1.26 1.40 1.46 1.48 1.45 1.44 1.52 1.60 1.61 1.68 1.83 1.97 1.93 1.85 1.82 1.73 1.61 1.60 1.64 1.73 1.90 2.04 2.09 2.01 2.09 2.32 2.36 2.31 2.15 2.10 2.18 2.31
0.52 0.44 0.41 0.44 0.55 0.69 0.77 0.88 0.95 1.13 1.19 1.37 1.52 1.56 1.65 1.69 1.72 1.81 1.81 1.74 1.73 1.77 1.95 2.03 2.03 1.98 1.82 1.60 1.61 1.73 1.74 1.90 1.95 1.91 1.81 1.80 2.00 2.22 2.30 2.12 2.08 2.19 2.21
0.51 0.53 0.55 0.57 0.60 0.65 0.72 0.79 0.84 1.03 1.24 1.50 1.81 1.86 1.92 1.93 1.99 2.14 2.21 2.13 2.10 2.20 2.25 2.21 2.15 2.07 1.72 1.76 1.76 1.73 1.76 1.86 1.89 1.87 1.81 1.69 1.66 1.69 1.84 1.97 2.09 2.21 2.18
0.66 0.71 0.80 0.79 0.75 0.75 0.79 0.85 0.93 1.10 1.39 1.68 1.93 2.09 2.16 2.18 2.23 2.32 2.34 2.30 2.41 2.59 2.62 2.50 2.33 2.18 2.08 1.96 1.74 1.68 1.60 1.63 1.66 1.71 1.71 1.47 1.33 1.44 1.38 1.56 1.71 1.84 1.92
0.73 0.78 0.91 0.95 0.92 0.93 1.01 1.13 1.29 1.50 1.77 1.97 2.11 2.20 2.19 2.19 2.22 2.29 2.24 2.28 2.42 2.50 2.53 2.46 2.33 2.23 2.14 2.00 1.66 1.57 1.37 1.42 1.47 1.50 1.50 1.45 1.38 1.36 1.41 1.43 1.42 1.41 1.48
0.78 0.84 0.94 1.05 1.13 1.17 1.28 1.36 1.47 1.65 1.86 1.99 2.00 1.98 2.06 2.15 2.20 2.23 2.28 2.31 2.30 2.19 2.10 2.08 2.09 2.07 2.11 2.03 1.67 1.48 1.33 1.44 1.48 1.49 1.51 1.54 1.46 1.55 1.42 1.37 1.42 1.45 1.48
0.78 0.90 0.93 1.01 1.13 1.23 1.27 1.37 1.52 1.69 1.87 1.98 1.97 1.93 2.02 2.09 2.15 2.20 2.26 2.21 2.14 2.08 2.03 1.96 1.99 1.98 1.95 1.93 1.55 1.42 1.35 1.47 1.49 1.53 1.54 1.53 1.42 1.42 1.26 1.20 1.33 1.35 1.39
0.86 0.89 0.97 1.04 1.08 1.18 1.26 1.36 1.49 1.59 1.68 1.74 1.81 1.91 2.04 2.12 2.13 2.17 2.15 2.09 2.00 2.03 2.06 2.00 1.93 1.89 1.85 1.87 1.59 1.40 1.27 1.44 1.61 1.60 1.54 1.52 1.44 1.17 1.10 1.07 1.09 1.13 1.16
0.93 0.97 1.05 1.18 1.25 1.30 1.32 1.40 1.39 1.45 1.56 1.57 1.63 1.67 1.76 1.86 1.87 1.94 1.91 1.92 1.90 1.88 1.87 1.81 1.74 1.70 1.71 1.61 1.47 1.27 1.14 1.20 1.37 1.50 1.52 1.52 1.38 1.10 0.97 0.87 0.85 0.85 0.81
1.13 1.10 1.08 1.15 1.24 1.34 1.43 1.49 1.45 1.40 1.41 1.45 1.52 1.56 1.56 1.68 1.77 1.84 1.80 1.77 1.74 1.69 1.62 1.56 1.52 1.53 1.53 1.47 1.25 1.05 0.95 0.99 1.10 1.28 1.44 1.36 1.17 0.99 0.84 0.78 0.74 0.69 0.66
0.97 1.02 1.03 1.09 1.27 1.27 1.33 1.42 1.47 1.44 1.44 1.49 1.48 1.51 1.54 1.61 1.81 1.89 1.77 1.66 1.58 1.51 1.48 1.43 1.43 1.48 1.50 1.44 1.23 1.02 0.87 0.90 0.98 1.07 1.17 1.18 1.16 1.09 1.00 0.90 0.79 0.70 0.74
0.82 0.82 0.87 0.92 1.01 1.04 1.08 1.16 1.25 1.30 1.26 1.23 1.19 1.16 1.23 1.37 1.56 1.67 1.64 1.50 1.43 1.48 1.48 1.44 1.40 1.34 1.31 1.34 1.26 1.08 1.02 1.03 1.09 1.07 1.13 1.16 1.25 1.29 1.28 1.24 1.14 1.05 1.01
0.68 0.72 0.74 0.76 0.80 0.86 0.94 1.04 1.18 1.27 1.25 1.16 1.10 1.09 1.10 1.19 1.38 1.58 1.66 1.53 1.33 1.37 1.32 1.26 1.21 1.18 1.14 1.11 1.07 1.00 0.96 1.00 1.03 0.98 1.12 1.28 1.39 1.47 1.48 1.45 1.33 1.19 1.07

GEFSMW_prec_meanprecacc_228.txt.gz
Total_Precipitation_Accumulation
1.68 2.16 2.81 3.47 4.25 5.37 6.03 6.15 5.85 5.14 4.60 4.16 3.91 3.60 3.32 3.04 2.56 2.14 1.88 1.76 1.68 1.61 1.78 1.61 1.63 1.54 1.56 1.59 1.68 1.89 1.98 1.75 1.91 2.15 1.94 1.63 1.38 1.40 1.39 1.33 1.41 1.47 1.55
1.54 2.15 2.93 3.74 4.39 4.95 5.31 5.37 4.97 4.21 3.71 3.42 3.33 3.03 2.81 2.47 2.25 2.00 1.93 1.68 1.61 1.61 1.49 1.62 1.44 1.39 1.56 1.54 1.60 1.81 1.82 1.60 1.72 2.00 2.06 1.80 1.69 1.39 0.99 1.18 1.30 1.35 1.63
1.72 2.50 3.32 4.07 4.41 4.43 4.20 3.90 3.71 3.30 3.16 3.09 2.88 2.64 2.58 2.29 2.11 1.90 1.80 1.55 1.39 1.36 1.38 1.36 1.26 1.33 1.23 1.39 1.56 1.68 1.84 1.80 1.62 1.61 1.90 1.82 1.76 1.55 1.14 1.00 1.09 1.33 1.59
1.87 2.59 3.14 3.37 3.52 3.44 3.14 2.94 2.86 2.77 2.71 2.60 2.47 2.17 2.03 1.97 1.79 1.69 1.70 1.59 1.41 1.35 1.34 1.26 1.32 1.31 1.17 1.42 1.22 1.36 1.64 1.78 1.61 1.61 1.55 1.58 1.68 1.71 1.54 1.31 1.14 1.29 1.38
1.44 1.67 1.88 2.04 2.16 2.19 2.33 2.38 2.47 2.59 2.49 2.43 2.40 2.29 2.03 1.95 1.89 1.88 1.96 1.84 1.65 1.45 1.23 1.26 1.41 1.46 1.31 1.33 1.31 1.48 1.51 1.55 1.57 1.58 1.56 1.72 1.73 1.56 1.58 1.58 1.47 1.40 1.18
0.89 1.00 1.09 1.21 1.44 1.49 1.68 1.85 1.93 2.10 2.24 2.23 2.13 2.06 1.99 2.01 2.02 1.96 1.80 1.61 1.50 1.41 1.29 1.36 1.57 1.56 1.51 1.47 1.40 1.41 1.46 1.62 1.72 1.71 1.59 1.65 1.70 1.65 1.73 1.57 1.50 1.56 1.37
0.71 0.85 0.98 1.09 1.27 1.21 1.26 1.45 1.53 1.57 1.72 1.75 1.71 1.76 1.88 1.93 1.81 1.70 1.63 1.47 1.25 1.22 1.31 1.36 1.51 1.50 1.52 1.46 1.58 1.60 1.53 1.62 1.70 1.68 1.63 1.56 1.49 1.58 1.72 1.75 1.61 1.63 1.58
0.62 0.72 0.72 0.80 0.92 0.88 0.96 1.08 1.23 1.31 1.37 1.45 1.51 1.51 1.63 1.65 1.59 1.65 1.56 1.42 1.21 1.11 1.13 1.22 1.27 1.32 1.37 1.36 1.68 1.58 1.60 1.68 1.62 1.52 1.80 1.72 1.49 1.62 1.75 1.94 2.10 1.99 1.89
0.50 0.56 0.50 0.51 0.62 0.72 0.79 0.86 1.04 1.18 1.20 1.32 1.40 1.36 1.43 1.53 1.59 1.60 1.50 1.33 1.33 1.19 1.21 1.23 1.38 1.49 1.51 1.55 1.74 1.67 1.65 1.77 1.63 1.61 1.74 1.71 1.64 1.68 1.68 1.99 2.26 2.37 2.21
0.42 0.45 0.44 0.40 0.46 0.59 0.75 0.86 0.99 1.11 1.14 1.24 1.24 1.11 1.27 1.39 1.52 1.49 1.41 1.37 1.40 1.32 1.38 1.40 1.50 1.56 1.54 1.54 1.70 1.69 1.76 1.83 1.73 1.71 1.74 1.72 1.70 1.81 1.76 1.88 2.08 2.26 2.44
0.45 0.44 0.38 0.38 0.37 0.47 0.65 0.78 0.93 1.04 1.11 1.18 1.27 1.30 1.30 1.25 1.37 1.40 1.37 1.40 1.44 1.36 1.39 1.47 1.55 1.54 1.59 1.71 1.80 1.68 1.74 1.84 2.00 1.92 1.90 1.97 2.05 2.01 1.94 2.00 2.06 2.20 2.46
0.37 0.39 0.44 0.48 0.44 0.45 0.55 0.69 0.85 0.99 1.05 1.12 1.25 1.33 1.47 1.44 1.39 1.38 1.41 1.43 1.52 1.55 1.52 1.55 1.59 1.49 1.53 1.72 1.79 1.78 1.81 1.85 1.91 2.06 2.27 2.23 2.23 2.15 2.01 2.10 2.06 2.12 2.39
0.48 0.48 0.52 0.56 0.57 0.54 0.57 0.69 0.83 0.99 1.10 1.19 1.27 1.41 1.49 1.40 1.36 1.47 1.55 1.56 1.68 1.80 1.83 1.81 1.71 1.62 1.60 1.67 1.77 1.86 1.88 1.93 1.99 2.11 2.21 2.24 2.38 2.25 2.15 2.10 2.06 2.12 2.29
0.55 0.49 0.46 0.49 0.58 0.73 0.77 0.83 1.07 1.09 1.10 1.28 1.41 1.48 1.51 1.49 1.48 1.56 1.64 1.65 1.70 1.86 1.99 1.95 1.88 1.84 1.75 1.62 1.61 1.66 1.74 1.91 2.05 2.10 2.02 2.11 2.34 2.39 2.34 2.18 2.13 2.22 2.36
0.52 0.44 0.42 0.44 0.55 0.70 0.78 0.89 0.96 1.14 1.20 1.39 1.54 1.58 1.68 1.74 1.78 1.86 1.86 1.78 1.78 1.81 1.98 2.05 2.05 1.99 1.83 1.61 1.62 1.74 1.75 1.91 1.96 1.92 1.82 1.82 2.01 2.24 2.33 2.14 2.11 2.23 2.24
0.51 0.53 0.56 0.57 0.61 0.66 0.73 0.80 0.86 1.06 1.28 1.53 1.83 1.88 1.95 1.96 2.03 2.18 2.26 2.16 2.14 2.23 2.27 2.23 2.16 2.07 1.72 1.77 1.76 1.75 1.78 1.88 1.92 1.89 1.83 1.70 1.67 1.70 1.85 1.99 2.12 2.23 2.19
0.67 0.72 0.82 0.80 0.76 0.76 0.80 0.89 0.98 1.14 1.41 1.69 1.95 2.12 2.19 2.21 2.26 2.36 2.38 2.33 2.44 2.60 2.63 2.51 2.34 2.19 2.09 1.97 1.75 1.70 1.62 1.66 1.70 1.75 1.74 1.49 1.34 1.45 1.39 1.57 1.73 1.86 1.94
0.74 0.80 0.94 0.97 0.94 0.94 1.02 1.16 1.31 1.52 1.78 1.99 2.13 2.23 2.24 2.24 2.28 2.33 2.25 2.29 2.43 2.50 2.53 2.47 2.34 2.24 2.16 2.01 1.67 1.58 1.39 1.45 1.49 1.53 1.53 1.47 1.39 1.38 1.43 1.45 1.44 1.43 1.51
0.80 0.86 0.96 1.08 1.15 1.18 1.29 1.37 1.48 1.65 1.87 2.00 2.01 2.00 2.09 2.18 2.22 2.25 2.30 2.32 2.32 2.21 2.12 2.09 2.10 2.08 2.12 2.04 1.68 1.49 1.34 1.46 1.49 1.51 1.53 1.56 1.48 1.58 1.45 1.40 1.45 1.47 1.49
0.78 0.91 0.94 1.02 1.14 1.24 1.27 1.37 1.53 1.70 1.87 1.99 1.99 1.95 2.06 2.14 2.19 2.23 2.29 2.24 2.16 2.10 2.05 1.97 2.00 1.99 1.96 1.94 1.56 1.43 1.36 1.48 1.50 1.54 1.55 1.53 1.42 1.43 1.29 1.24 1.37 1.40 1.42
0.86 0.90 0.98 1.05 1.09 1.19 1.27 1.37 1.50 1.60 1.71 1.80 1.88 1.99 2.13 2.20 2.20 2.22 2.19 2.12 2.03 2.05 2.07 2.01 1.95 1.90 1.87 1.89 1.60 1.41 1.28 1.46 1.62 1.61 1.55 1.53 1.45 1.18 1.11 1.08 1.10 1.14 1.18
0.93 0.97 1.06 1.19 1.26 1.31 1.33 1.41 1.41 1.47 1.60 1.63 1.72 1.75 1.86 1.96 1.94 2.00 1.94 1.95 1.92 1.90 1.88 1.82 1.76 1.72 1.73 1.63 1.49 1.28 1.15 1.22 1.38 1.51 1.53 1.54 1.40 1.12 1.00 0.90 0.88 0.88 0.84
1.14 1.10 1.09 1.16 1.25 1.35 1.44 1.52 1.48 1.44 1.46 1.51 1.60 1.65 1.68 1.82 1.87 1.90 1.83 1.79 1.77 1.71 1.64 1.57 1.53 1.55 1.56 1.49 1.26 1.07 0.97 1.01 1.12 1.30 1.46 1.38 1.19 1.01 0.87 0.81 0.78 0.73 0.70
0.98 1.02 1.04 1.10 1.29 1.29 1.35 1.45 1.51 1.47 1.48 1.55 1.55 1.60 1.64 1.71 1.89 1.96 1.82 1.71 1.61 1.54 1.50 1.45 1.47 1.52 1.53 1.46 1.26 1.05 0.89 0.91 0.99 1.08 1.17 1.19 1.17 1.11 1.02 0.92 0.81 0.73 0.78
0.82 0.83 0.88 0.93 1.03 1.06 1.10 1.20 1.30 1.34 1.30 1.28 1.24 1.22 1.31 1.47 1.66 1.74 1.71 1.55 1.46 1.52 1.52 1.47 1.44 1.37 1.33 1.36 1.29 1.10 1.03 1.04 1.10 1.08 1.13 1.17 1.26 1.30 1.30 1.25 1.16 1.07 1.04
0.68 0.72 0.75 0.78 0.82 0.88 0.97 1.08 1.26 1.35 1.28 1.18 1.12 1.11 1.13 1.24 1.43 1.63 1.71 1.57 1.36 1.40 1.35 1.28 1.23 1.20 1.16 1.12 1.08 1.01 0.97 1.02 1.05 0.99 1.13 1.29 1.40 1.48 1.49 1.47 1.35 1.20 1.08

GEFSMW_prec_meanprecacc_234.txt.gz
Total_Precipitation_Accumulation
1.68 2.16 2.81 3.47 4.26 5.38 6.05 6.18 5.89 5.17 4.65 4.24 3.99 3.68 3.40 3.13 2.64 2.21 1.93 1.81 1.73 1.65 1.86 1.70 1.72 1.61 1.63 1.66 1.75 1.98 2.08 1.85 2.01 2.28 2.06 1.72 1.46 1.48 1.44 1.39 1.48 1.52 1.59
1.54 2.15 2.93 3.74 4.39 4.95 5.32 5.40 5.00 4.23 3.74 3.48 3.39 3.10 2.88 2.54 2.33 2.07 2.00 1.72 1.65 1.65 1.55 1.71 1.54 1.47 1.65 1.62 1.68 1.90 1.91 1.68 1.80 2.12 2.22 1.95 1.83 1.50 1.07 1.26 1.37 1.42 1.70
1.72 2.50 3.32 4.07 4.41 4.43 4.20 3.91 3.72 3.32 3.18 3.13 2.94 2.71 2.66 2.36 2.17 1.97 1.87 1.59 1.41 1.39 1.43 1.42 1.34 1.41 1.33 1.49 1.64 1.76 1.93 1.89 1.71 1.70 2.04 1.99 1.95 1.72 1.27 1.07 1.14 1.39 1.66
1.87 2.59 3.14 3.37 3.52 3.44 3.14 2.95 2.87 2.79 2.73 2.62 2.50 2.21 2.08 2.03 1.86 1.76 1.77 1.64 1.44 1.37 1.37 1.30 1.38 1.39 1.27 1.53 1.31 1.46 1.76 1.90 1.74 1.72 1.66 1.70 1.84 1.88 1.71 1.43 1.20 1.33 1.43
1.44 1.67 1.88 2.04 2.16 2.19 2.33 2.38 2.48 2.61 2.51 2.44 2.43 2.34 2.07 2.01 1.95 1.95 2.03 1.89 1.70 1.48 1.25 1.29 1.47 1.53 1.40 1.42 1.41 1.60 1.63 1.67 1.69 1.68 1.66 1.83 1.86 1.69 1.73 1.73 1.60 1.48 1.23
0.89 1.00 1.09 1.21 1.44 1.49 1.68 1.86 1.96 2.13 2.26 2.26 2.15 2.09 2.03 2.06 2.09 2.04 1.88 1.69 1.56 1.46 1.34 1.40 1.62 1.63 1.59 1.55 1.49 1.50 1.56 1.72 1.82 1.81 1.69 1.76 1.82 1.78 1.87 1.72 1.65 1.67 1.45
0.71 0.86 0.98 1.09 1.28 1.22 1.27 1.47 1.56 1.61 1.75 1.78 1.74 1.79 1.92 1.98 1.86 1.76 1.70 1.55 1.31 1.27 1.36 1.41 1.58 1.57 1.59 1.52 1.65 1.68 1.62 1.71 1.78 1.77 1.72 1.65 1.59 1.70 1.85 1.89 1.74 1.76 1.70
0.62 0.73 0.73 0.81 0.93 0.89 0.97 1.10 1.25 1.34 1.40 1.49 1.56 1.55 1.68 1.70 1.64 1.70 1.61 1.47 1.25 1.15 1.17 1.27 1.33 1.37 1.41 1.40 1.74 1.64 1.66 1.75 1.68 1.59 1.88 1.79 1.55 1.70 1.84 2.05 2.22 2.10 2.00
0.50 0.57 0.51 0.52 0.64 0.74 0.84 0.89 1.06 1.20 1.22 1.34 1.43 1.40 1.47 1.56 1.62 1.63 1.53 1.36 1.36 1.22 1.25 1.29 1.45 1.54 1.56 1.58 1.78 1.73 1.71 1.84 1.69 1.67 1.81 1.77 1.71 1.73 1.73 2.06 2.35 2.47 2.32
0.42 0.45 0.45 0.41 0.48 0.63 0.88 0.94 1.01 1.13 1.16 1.25 1.26 1.13 1.29 1.41 1.54 1.50 1.43 1.40 1.43 1.36 1.43 1.46 1.56 1.62 1.58 1.57 1.73 1.74 1.83 1.90 1.80 1.78 1.81 1.78 1.77 1.87 1.80 1.93 2.15 2.35 2.54
0.46 0.44 0.40 0.40 0.39 0.51 0.74 0.82 0.95 1.06 1.12 1.19 1.29 1.33 1.33 1.28 1.39 1.41 1.39 1.42 1.46 1.39 1.44 1.53 1.60 1.58 1.64 1.75 1.85 1.72 1.78 1.90 2.06 1.98 1.96 2.02 2.12 2.08 1.99 2.05 2.13 2.27 2.55
0.38 0.40 0.45 0.49 0.45 0.45 0.56 0.71 0.87 1.01 1.07 1.14 1.28 1.36 1.49 1.46 1.41 1.39 1.42 1.45 1.55 1.58 1.56 1.59 1.62 1.52 1.56 1.76 1.83 1.82 1.85 1.90 1.95 2.11 2.32 2.28 2.29 2.21 2.07 2.17 2.14 2.20 2.47
0.49 0.49 0.53 0.57 0.58 0.55 0.58 0.70 0.84 0.99 1.11 1.20 1.28 1.43 1.51 1.42 1.37 1.49 1.57 1.58 1.71 1.83 1.86 1.84 1.74 1.65 1.64 1.71 1.81 1.90 1.92 1.96 2.03 2.14 2.25 2.29 2.43 2.31 2.21 2.15 2.12 2.20 2.36
0.56 0.50 0.47 0.50 0.59 0.74 0.78 0.85 1.08 1.10 1.10 1.28 1.42 1.49 1.52 1.50 1.49 1.57 1.67 1.67 1.73 1.89 2.02 1.99 1.93 1.89 1.79 1.66 1.64 1.68 1.77 1.94 2.08 2.13 2.06 2.14 2.37 2.43 2.39 2.23 2.18 2.27 2.42
0.53 0.45 0.43 0.45 0.56 0.70 0.78 0.90 0.97 1.14 1.21 1.40 1.55 1.59 1.70 1.75 1.79 1.88 1.88 1.81 1.81 1.85 2.02 2.09 2.10 2.04 1.87 1.64 1.65 1.77 1.77 1.94 1.98 1.94 1.84 1.83 2.03 2.26 2.35 2.16 2.14 2.26 2.29
0.53 0.55 0.58 0.59 0.62 0.67 0.74 0.82 0.87 1.07 1.29 1.55 1.85 1.91 1.98 1.98 2.05 2.20 2.27 2.18 2.16 2.27 2.31 2.25 2.19 2.10 1.74 1.79 1.78 1.76 1.79 1.91 1.94 1.92 1.85 1.72 1.69 1.72 1.87 2.00 2.13 2.25 2.22
0.68 0.74 0.83 0.82 0.78 0.78 0.82 0.91 1.01 1.18 1.45 1.73 1.98 2.15 2.21 2.23 2.28 2.37 2.39 2.34 2.45 2.63 2.66 2.54 2.36 2.21 2.11 1.99 1.76 1.71 1.63 1.68 1.72 1.77 1.76 1.50 1.36 1.47 1.41 1.59 1.74 1.87 1.95
0.75 0.81 0.95 0.98 0.95 0.95 1.04 1.18 1.34 1.56 1.83 2.02 2.15 2.25 2.26 2.27 2.30 2.35 2.27 2.30 2.44 2.52 2.55 2.49 2.36 2.26 2.17 2.02 1.68 1.59 1.40 1.46 1.51 1.54 1.54 1.49 1.41 1.39 1.45 1.46 1.45 1.44 1.52
0.80 0.87 0.97 1.09 1.16 1.19 1.30 1.39 1.51 1.70 1.93 2.07 2.08 2.04 2.12 2.21 2.25 2.27 2.32 2.36 2.35 2.23 2.13 2.11 2.12 2.10 2.14 2.05 1.69 1.49 1.35 1.47 1.50 1.51 1.54 1.57 1.49 1.59 1.46 1.42 1.46 1.48 1.50
0.79 0.91 0.94 1.03 1.15 1.25 1.28 1.39 1.55 1.73 1.92 2.05 2.05 2.01 2.10 2.18 2.22 2.27 2.33 2.28 2.19 2.12 2.06 1.99 2.02 2.01 1.99 1.97 1.58 1.43 1.36 1.49 1.51 1.55 1.55 1.54 1.43 1.43 1.30 1.25 1.39 1.41 1.43
0.86 0.90 0.98 1.05 1.10 1.20 1.28 1.38 1.51 1.62 1.74 1.85 1.94 2.05 2.21 2.27 2.25 2.28 2.24 2.17 2.07 2.08 2.10 2.04 1.98 1.95 1.92 1.93 1.62 1.43 1.29 1.46 1.63 1.62 1.56 1.54 1.45 1.19 1.12 1.09 1.11 1.16 1.20
0.94 0.97 1.06 1.19 1.26 1.32 1.35 1.43 1.44 1.51 1.65 1.68 1.78 1.82 1.93 2.02 2.01 2.07 2.00 2.00 1.97 1.95 1.92 1.86 1.78 1.76 1.76 1.66 1.52 1.30 1.17 1.23 1.39 1.52 1.54 1.54 1.40 1.12 1.00 0.91 0.90 0.89 0.86
1.14 1.10 1.09 1.17 1.25 1.35 1.46 1.54 1.52 1.48 1.50 1.57 1.68 1.74 1.78 1.91 1.95 1.96 1.88 1.84 1.82 1.76 1.68 1.61 1.56 1.59 1.59 1.53 1.29 1.09 1.00 1.02 1.13 1.31 1.47 1.38 1.20 1.02 0.88 0.82 0.79 0.75 0.72
0.98 1.03 1.05 1.11 1.30 1.30 1.37 1.48 1.55 1.51 1.53 1.62 1.64 1.70 1.75 1.82 1.99 2.02 1.87 1.76 1.66 1.60 1.56 1.50 1.52 1.56 1.57 1.49 1.29 1.07 0.91 0.93 1.01 1.09 1.18 1.20 1.18 1.12 1.03 0.93 0.82 0.74 0.79
0.83 0.83 0.89 0.94 1.04 1.07 1.12 1.23 1.34 1.39 1.37 1.34 1.31 1.31 1.42 1.57 1.75 1.81 1.76 1.60 1.51 1.57 1.59 1.55 1.51 1.43 1.37 1.39 1.31 1.12 1.05 1.07 1.12 1.10 1.14 1.18 1.27 1.32 1.32 1.28 1.18 1.09 1.06
0.70 0.74 0.77 0.79 0.83 0.90 0.99 1.11 1.30 1.43 1.41 1.31 1.22 1.20 1.21 1.30 1.50 1.70 1.78 1.64 1.42 1.45 1.40 1.33 1.28 1.24 1.19 1.15 1.12 1.04 0.99 1.04 1.06 1.01 1.14 1.30 1.41 1.50 1.51 1.50 1.37 1.22 1.10